User: anonymous   Login
Location: Unspecified
(0.0000°N, 0.0000°E)
Time: 06:15:22
(UTC+02:00)
Language:

H-2A R/B - Orbit

View from above orbital plane
View from above orbital plane
View from above satellite
View from above satellite

Ground track
Ground track

The orbit data is extracted from the following two-line orbital elements,

1 26899U 01038B   15113.84854983  .00006996  00000-0  20598-2 0  9992
2 26899 028.3997 023.1217 7145530 029.9248 037.3824 02.44999198117123
Epoch (UTC): 23 April 2015 20:21:54
Eccentricity: 0.7145530
inclination: 28.3997°
perigee height: 256 km
apogee height: 33473 km
right ascension of ascending node: 23.1217°
argument of perigee: 29.9248°
revolutions per day: 2.44999198
mean anomaly at epoch: 37.3824°
orbit number at epoch: 11712

The dashed part of the orbit path shows where the satellite is in the earth's shadow,  

DLR